Regional Weather Roundup
Issued by NWS

Home | Current Version | Previous Version | Text Only | Print | Product List | Glossary Off
Versions: 1 2 3 4 5 6 7 8 9 10 11 12 13 14 15 16 17 18 19 20 21 22 23 24 25 26 27 28 29 30 31 32 33 34 35 36 37 38 39 40 41 42 43 44 45 46 47 48 49 50

000
ASUS43 KLSX 230410
RWRMO

WEATHER SUMMARY FOR MISSOURI
NATIONAL WEATHER SERVICE SPRINGFIELD MO
1100 PM CDT MON MAY 22 2017

NOTE: "FAIR" INDICATES FEW OR NO CLOUDS BELOW 12,000 FEET WITH NO
       SIGNIFICANT WEATHER AND/OR OBSTRUCTIONS TO VISIBILITY.
       CURRENT SKY AND/OR WEATHER CONDITIONS ARE NOT AVAILABLE FOR
       CHILLICOTHE AND FARMINGTON.

MOZ001>031-035>038-043-044-053-054-230500-
...NORTHERN AND WESTERN MISSOURI...

CITY           SKY/WX    TMP DP  RH WIND       PRES   REMARKS
KANSAS CTY INT MOCLDY    54  54 100 S6        29.92F
KANSAS C DTWN  CLOUDY    59  57  93 SW5       29.92S
LEE`S SUMMIT   CLOUDY    57  57 100 E7        29.92F
ST JOSEPH      CLEAR     55  55 100 S5        29.90F
CHILLICOTHE      N/A     57  56  96 S5        29.91F
KIRKSVILLE     CLOUDY    56  54  93 VRB6      29.93S

$$
MOZ066>068-077>081-088>096-101>105-230500-
...SOUTHWEST MISSOURI...

CITY           SKY/WX    TMP DP  RH WIND       PRES   REMARKS
SPRINGFIELD    CLOUDY    63  51  65 S9        29.92F
JOPLIN         CLOUDY    65  57  75 S5        29.91F
BRANSON        CLOUDY    61  50  67 CALM      29.94F

$$
MOZ032>034-039>042-045>050-055>058-069>072-230500-
...CENTRAL MISSOURI...

CITY           SKY/WX    TMP DP  RH WIND       PRES   REMARKS
COLUMBIA       CLOUDY    57  55  93 NE7       29.94F
JEFFERSON CITY MOCLDY    62  53  72 CALM      29.93F
ROLLA          CLOUDY    61  53  75 SE7       29.92F
SEDALIA        CLOUDY    57  57 100 E7        29.93F
WHITEMAN AFB   DRIZZLE   58  58 100 NE6       29.92R
WARRENSBURG    LGT RAIN  55  54  94 N3        29.94S
OSAGE BEACH    CLOUDY    63  56  78 CALM      29.92F

$$
MOZ051-052-059>065-230500-
...EAST CENTRAL MISSOURI...

CITY           SKY/WX    TMP DP  RH WIND       PRES   REMARKS
ST LOUIS INTL  CLOUDY    71  48  43 CALM      29.94F
SPIRIT OF STL  CLOUDY    63  56  78 CALM      29.93S
ST CHARLES     CLOUDY    63  58  83 N6        29.93F

$$
MOZ072>076-082>087-097>100-106>115-230500-
...SOUTH CENTRAL AND SOUTHEAST MISSOURI...

CITY           SKY/WX    TMP DP  RH WIND       PRES   REMARKS
CAPE GIRARDEAU CLEAR     63  53  70 CALM      29.94S
FARMINGTON     CLOUDY    62  53  72 CALM      29.96F
POPLAR BLUFF   PTCLDY    63  60  90 CALM      29.93F
WEST PLAINS    PTCLDY    58  53  84 CALM      29.96S

$$




USA.gov is the U.S. government's official web portal to all federal, state and local government web resources and services.